Clawson, MI

2:41 PM EST on February 23, 2017 (GMT -0500)
Troy

Weather History for KVLL - August, 2013

Change the Weather History Date:

Sunday, August 11, 2013

  Actual Average (KDET) Record (KDET)
Temperature  
Mean Temperature 71 °F -  
Max Temperature 80 °F 79 °F 91 °F (1988)
Min Temperature 62 °F 62 °F 48 °F (1965)
Cooling Degree Days 6    
Growing Degree Days 21 (Base 50)    
Moisture  
Dew Point 54 °F    
Average Humidity 56    
Maximum Humidity 74    
Minimum Humidity 37    
Precipitation  
Precipitation 0.00 in - - ()
Sea Level Pressure  
Sea Level Pressure 30.13 in    
Wind  
Wind Speed 2 mph (West)    
Max Wind Speed 12 mph    
Max Gust Speed 16 mph    
Visibility 10 miles    
Events      
Averages and records for this station are not official NWS values.
T = Trace of Precipitation, MM = Missing Value Source: NWS Daily Summary

Daily Weather History Graph

Daily Weather History Graph

Search for Another Location

Airport or City:

Trip Planner

Search our weather history database for the weather conditions in past years. The results will help you decide how hot, cold, wet, or windy it might be!

Date:

Astronomy

Aug. 11, 2013 Rise Set
Actual Time 6:35 AM EDT 8:39 PM EDT
Civil Twilight 6:04 AM EDT 9:10 PM EDT
Nautical Twilight 5:26 AM EDT 9:47 PM EDT
Astronomical Twilight 4:45 AM EDT 10:28 PM EDT
Moon 11:30 AM EDT (8/11) 10:46 PM EDT (8/11)
Length of Visible Light 15h 05m
Length of Day
14h 03m
Waxing Crescent, 22% of the Moon is Illuminated
Aug 11
Waxing Crescent
Aug 14
First Quarter
Aug 20
Full
Aug 28
Last Quarter
Sep 5
New

Hourly Weather History & Observations

Time (EDT) Temp. Dew Point Humidity Pressure Visibility Wind Dir Wind Speed Gust Speed Precip Events Conditions
12:15 AM 64.8 °F 52.7 °F 65% 30.16 in 10.0 mi Calm Calm - N/A   Mostly Cloudy
12:35 AM 63.7 °F 53.1 °F 68% 30.16 in 10.0 mi Calm Calm - N/A   Scattered Clouds
12:54 AM 63.1 °F 53.2 °F 70% 30.16 in 10.0 mi Calm Calm - N/A   Clear
1:15 AM 63.5 °F 52.7 °F 68% 30.16 in 10.0 mi Calm Calm - N/A   Clear
1:34 AM 63.9 °F 52.7 °F 67% 30.15 in 10.0 mi Calm Calm - N/A   Scattered Clouds
1:55 AM 63.5 °F 52.7 °F 68% 30.15 in 10.0 mi Calm Calm - N/A   Mostly Cloudy
2:15 AM 63.0 °F 53.6 °F 71% 30.15 in 10.0 mi Calm Calm - N/A   Scattered Clouds
2:34 AM 62.8 °F 53.8 °F 72% 30.15 in 10.0 mi Calm Calm - N/A   Scattered Clouds
2:55 AM 63.5 °F 54.5 °F 72% 30.16 in 10.0 mi Calm Calm - N/A   Mostly Cloudy
3:15 AM 63.1 °F 54.7 °F 74% 30.15 in 10.0 mi Calm Calm - N/A   Overcast
3:34 AM 64.4 °F 54.7 °F 71% 30.15 in 10.0 mi Calm Calm - N/A   Overcast
3:55 AM 64.0 °F 54.1 °F 70% 30.15 in 10.0 mi Calm Calm - N/A   Overcast
4:14 AM 65.3 °F 53.1 °F 65% 30.16 in 10.0 mi Calm Calm - N/A   Overcast
4:35 AM 65.1 °F 52.9 °F 65% 30.15 in 10.0 mi Calm Calm - N/A   Overcast
4:55 AM 64.8 °F 51.4 °F 62% 30.15 in 10.0 mi Calm Calm - N/A   Overcast
5:14 AM 65.5 °F 51.3 °F 60% 30.15 in 10.0 mi Calm Calm - N/A   Overcast
5:35 AM 64.8 °F 52.0 °F 63% 30.15 in 10.0 mi Calm Calm - N/A   Overcast
5:55 AM 64.9 °F 50.7 °F 60% 30.15 in 10.0 mi Calm Calm - N/A   Overcast
6:14 AM 65.1 °F 52.5 °F 64% 30.16 in 10.0 mi Calm Calm - N/A   Overcast
6:35 AM 64.8 °F 52.3 °F 64% 30.16 in 10.0 mi Calm Calm - N/A   Overcast
6:54 AM 64.8 °F 53.4 °F 67% 30.16 in 10.0 mi Calm Calm - N/A   Overcast
7:15 AM 64.8 °F 52.9 °F 65% 30.16 in 10.0 mi Calm Calm - N/A   Overcast
7:35 AM 65.3 °F 53.1 °F 65% 30.16 in 10.0 mi Calm Calm - N/A   Overcast
7:54 AM 65.8 °F 53.1 °F 63% 30.16 in 10.0 mi Calm Calm - N/A   Overcast
8:15 AM 66.0 °F 52.9 °F 63% 30.15 in 10.0 mi Calm Calm - N/A   Overcast
8:34 AM 66.7 °F 53.1 °F 61% 30.16 in 10.0 mi Calm Calm - N/A   Overcast
8:55 AM 66.6 °F 54.1 °F 64% 30.16 in 10.0 mi Calm Calm - N/A   Overcast
9:15 AM 67.1 °F 55.4 °F 66% 30.16 in 10.0 mi Calm Calm - N/A   Overcast
9:34 AM 67.1 °F 55.0 °F 65% 30.16 in 10.0 mi Calm Calm - N/A   Overcast
9:55 AM 67.8 °F 56.3 °F 67% 30.16 in 10.0 mi Calm Calm - N/A   Overcast
10:15 AM 70.3 °F 57.9 °F 65% 30.16 in 10.0 mi SSE 3.5 mph - N/A   Overcast
10:34 AM 71.2 °F 58.6 °F 64% 30.16 in 10.0 mi South 3.5 mph - N/A   Mostly Cloudy
10:55 AM 72.1 °F 60.1 °F 66% 30.15 in 10.0 mi South 3.5 mph - N/A   Scattered Clouds
11:15 AM 74.3 °F 59.4 °F 60% 30.15 in 10.0 mi South 5.8 mph - N/A   Mostly Cloudy
11:34 AM 74.1 °F 58.3 °F 58% 30.15 in 10.0 mi SSW 4.6 mph - N/A   Scattered Clouds
11:55 AM 77.4 °F 58.8 °F 53% 30.14 in 10.0 mi WSW 5.8 mph - N/A   Mostly Cloudy
12:14 PM 76.5 °F 57.2 °F 51% 30.13 in 10.0 mi West 5.8 mph - N/A   Overcast
12:35 PM 76.1 °F 57.2 °F 52% 30.14 in 10.0 mi West 8.1 mph - N/A   Overcast
12:54 PM 78.1 °F 57.0 °F 48% 30.13 in 10.0 mi WSW 6.9 mph - N/A   Mostly Cloudy
1:15 PM 77.9 °F 55.8 °F 46% 30.13 in 10.0 mi WSW 9.2 mph - N/A   Mostly Cloudy
1:35 PM 76.8 °F 55.4 °F 47% 30.13 in 10.0 mi WSW 6.9 mph - N/A   Scattered Clouds
1:54 PM 78.8 °F 55.4 °F 44% 30.12 in 10.0 mi SW 5.8 mph - N/A   Scattered Clouds
2:15 PM 77.9 °F 53.8 °F 43% 30.12 in 10.0 mi SW 8.1 mph - N/A   Overcast
2:35 PM 79.5 °F 52.2 °F 38% 30.12 in 10.0 mi SW 8.1 mph - N/A   Mostly Cloudy
2:54 PM 80.2 °F 51.6 °F 37% 30.11 in 10.0 mi WSW 8.1 mph - N/A   Scattered Clouds
3:15 PM 79.7 °F 50.9 °F 37% 30.11 in 10.0 mi West 11.5 mph - N/A   Overcast
3:34 PM 79.5 °F 52.7 °F 39% 30.10 in 10.0 mi West 4.6 mph - N/A   Overcast
3:55 PM 79.9 °F 52.2 °F 38% 30.11 in 10.0 mi WSW 9.2 mph 16.1 mph N/A   Mostly Cloudy
4:15 PM 80.2 °F 51.4 °F 37% 30.10 in 10.0 mi West 9.2 mph - N/A   Mostly Cloudy
4:34 PM 79.3 °F 54.1 °F 42% 30.10 in 10.0 mi WNW 5.8 mph - N/A   Mostly Cloudy
4:55 PM 78.6 °F 54.3 °F 43% 30.09 in 10.0 mi NW 9.2 mph 16.1 mph N/A   Mostly Cloudy
5:15 PM 78.4 °F 54.7 °F 44% 30.09 in 10.0 mi NW 9.2 mph - N/A   Scattered Clouds
5:34 PM 79.5 °F 54.5 °F 42% 30.08 in 10.0 mi NNW 10.4 mph - N/A   Scattered Clouds
5:55 PM 78.4 °F 54.5 °F 43% 30.08 in 10.0 mi NNW 10.4 mph - N/A   Scattered Clouds
6:15 PM 78.3 °F 54.7 °F 44% 30.08 in 10.0 mi NW 5.8 mph - N/A   Clear
6:34 PM 77.4 °F 54.1 °F 44% 30.07 in 10.0 mi NW 6.9 mph - N/A   Clear
6:55 PM 77.4 °F 54.3 °F 45% - 10.0 mi NW 8.1 mph - N/A   Scattered Clouds
7:15 PM 77.0 °F 54.0 °F 45% 30.07 in 10.0 mi NW 5.8 mph - N/A   Scattered Clouds
7:34 PM 77.0 °F 54.3 °F 45% 30.07 in 10.0 mi NW 4.6 mph - N/A   Mostly Cloudy
7:55 PM 76.3 °F 53.6 °F 45% 30.07 in 10.0 mi NW 5.8 mph - N/A   Overcast
8:14 PM 76.1 °F 54.0 °F 46% 30.07 in 10.0 mi NW 3.5 mph - N/A   Mostly Cloudy
8:34 PM 75.2 °F 53.6 °F 47% 30.07 in 10.0 mi North 3.5 mph - N/A   Mostly Cloudy
8:54 PM 74.7 °F 53.4 °F 47% 30.08 in 10.0 mi North 4.6 mph - N/A   Mostly Cloudy
9:14 PM 74.3 °F 53.2 °F 48% 30.08 in 7.0 mi North 3.5 mph - N/A   Overcast
9:35 PM 74.1 °F 54.5 °F 50% 30.09 in 10.0 mi NNW 4.6 mph - N/A   Overcast
9:54 PM 74.3 °F 54.9 °F 51% 30.10 in 10.0 mi Calm Calm - N/A   Overcast
10:15 PM 73.8 °F 55.4 °F 53% 30.09 in 10.0 mi Calm Calm - N/A   Overcast
10:34 PM 73.4 °F 56.3 °F 55% 30.10 in 10.0 mi Calm Calm - N/A   Overcast
10:54 PM 73.2 °F 56.3 °F 55% 30.10 in 10.0 mi Calm Calm - N/A   Overcast
11:15 PM 73.6 °F 56.3 °F 55% 30.10 in 10.0 mi Calm Calm - N/A   Overcast
11:34 PM 72.7 °F 56.3 °F 56% 30.10 in 10.0 mi Calm Calm - N/A   Overcast
11:55 PM 72.3 °F 56.5 °F 57% 30.09 in 10.0 mi Calm Calm - N/A   Overcast